Simultaneous Nadir Overpasses (SNOs) Predictions

Prediction of SNOs between AQUA and NPP Satellite Orbit:

Table of predicted SNOs for the next 14.0 days since TLE Epoch: 2/16/2013
Index Date (AQUA) Time (AQUA) Lat,Lon (AQUA) SZA (AQUA ) Date (NPP) Time (NPP) Lat,Lon (NPP) SZA (NPP ) Distance(km) Time Diff (sec)
1 02/17/2013 07:10:56 -76.85, 134.13 71.45 02/17/2013 07:10:29 -76.84, 134.09 71.42 1.19 27
2 02/17/2013 08:00:07 77.54, -55.56 107.71 02/17/2013 08:00:57 77.53, -55.64 107.68 1.94 50
3 02/19/2013 23:27:54 -76.94,-109.76 72.51 02/19/2013 23:27:25 -76.95,-109.71 72.50 1.27 29
4 02/20/2013 00:17:07 77.55, 60.26 106.74 02/20/2013 00:17:55 77.55, 60.20 106.72 1.43 48
5 02/22/2013 15:45:23 -76.75, 5.17 73.24 02/22/2013 15:44:27 -76.75, 5.26 73.22 2.33 56
6 02/22/2013
